When you browse on this site, cookies collect data to enhance your experience and personalize the content and advertising you see.
Visit our Privacy Policy to learn more. By continuing to use the site, you agree to this use of cookies and data.
  • In Hungary
  • List of Countries
  • For 7 days
  • Water Temperature
  • Satellite Maps
  • Weather Map
  • News
  • Weather Widgets
  • user-avatar
    Login

    Hourly Weather Korolevu

    Today, 12 December, Wednesday

    Time Temperature Precipitation Wind Pressure Humidity
    00:00 +20°C° 0 mm 2 mps 734 mmHg 94%
    01:00 +20°C° 0 mm 2 mps 734 mmHg 94%
    02:00 +20°C° 0 mm 2 mps 734 mmHg 95%
    03:00 +20°C° 0 mm 2 mps 734 mmHg 95%
    04:00 +20°C° 0 mm 2 mps 734 mmHg 95%
    05:00 +20°C° 0 mm 2 mps 734 mmHg 94%
    06:00 +21°C° 0 mm 2 mps 734 mmHg 93%
    07:00 +24°C° 0.1 mm 2 mps 734 mmHg 86%
    08:00 +26°C° 0.1 mm 2 mps 734 mmHg 78%
    09:00 +28°C° 0.1 mm 2 mps 735 mmHg 70%
    10:00 +28°C° 0.1 mm 2 mps 734 mmHg 69%
    11:00 +29°C° 0.1 mm 3 mps 734 mmHg 67%
    12:00 +29°C° 0 mm 3 mps 734 mmHg 68%
    13:00 +28°C° 0.1 mm 3 mps 734 mmHg 72%
    14:00 +27°C° 0.1 mm 3 mps 734 mmHg 76%
    15:00 +26°C° 0.1 mm 3 mps 734 mmHg 80%
    16:00 +26°C° 0.1 mm 3 mps 734 mmHg 83%
    17:00 +25°C° 0.1 mm 3 mps 734 mmHg 85%
    18:00 +25°C° 0 mm 2 mps 734 mmHg 89%
    19:00 +25°C° 0.1 mm 2 mps 734 mmHg 90%
    20:00 +24°C° 0.1 mm 2 mps 734 mmHg 92%
    21:00 +24°C° 0.1 mm 3 mps 735 mmHg 93%
    22:00 +24°C° 0.1 mm 3 mps 735 mmHg 93%
    23:00 +24°C° 0.1 mm 3 mps 735 mmHg 93%

    Tomorrow, 13 December, Thursday

    Time Temperature Precipitation Wind Pressure Humidity
    00:00 +24°C° 0.1 mm 3 mps 735 mmHg 93%
    01:00 +24°C° 0 mm 3 mps 735 mmHg 93%
    02:00 +24°C° 0 mm 3 mps 734 mmHg 93%
    03:00 +24°C° 0 mm 3 mps 734 mmHg 93%
    04:00 +24°C° 0 mm 3 mps 734 mmHg 93%
    05:00 +24°C° 0 mm 3 mps 734 mmHg 93%
    06:00 +24°C° 0 mm 3 mps 734 mmHg 93%
    07:00 +25°C° 0 mm 3 mps 734 mmHg 87%
    08:00 +26°C° 0 mm 3 mps 735 mmHg 82%
    09:00 +28°C° 0 mm 3 mps 735 mmHg 77%
    10:00 +28°C° 0.1 mm 3 mps 735 mmHg 75%
    11:00 +29°C° 0.1 mm 3 mps 735 mmHg 73%
    12:00 +30°C° 0.1 mm 3 mps 735 mmHg 72%
    13:00 +29°C° 0.9 mm 3 mps 734 mmHg 76%
    14:00 +28°C° 0.9 mm 3 mps 734 mmHg 80%
    15:00 +28°C° 0.9 mm 3 mps 733 mmHg 85%
    16:00 +27°C° 0.5 mm 3 mps 733 mmHg 87%
    17:00 +26°C° 0.5 mm 3 mps 733 mmHg 90%
    18:00 +25°C° 0.5 mm 3 mps 734 mmHg 92%
    19:00 +25°C° 0.2 mm 3 mps 734 mmHg 93%
    20:00 +25°C° 0.2 mm 3 mps 734 mmHg 94%
    21:00 +25°C° 0.2 mm 3 mps 735 mmHg 94%
    22:00 +25°C° 0.1 mm 3 mps 735 mmHg 94%
    23:00 +25°C° 0.1 mm 3 mps 735 mmHg 94%

    Day after tomorrow, 14 December, Friday

    Time Temperature Precipitation Wind Pressure Humidity
    00:00 +25°C° 0.1 mm 3 mps 735 mmHg 94%
    01:00 +25°C° 0.1 mm 2 mps 734 mmHg 95%
    02:00 +25°C° 0.1 mm 2 mps 734 mmHg 95%
    03:00 +25°C° 0.1 mm 2 mps 733 mmHg 95%
    04:00 +25°C° 0.1 mm 2 mps 733 mmHg 95%
    05:00 +25°C° 0.1 mm 2 mps 734 mmHg 95%
    06:00 +25°C° 0.1 mm 2 mps 734 mmHg 95%
    07:00 +26°C° 0.3 mm 2 mps 734 mmHg 90%
    08:00 +27°C° 0.3 mm 2 mps 735 mmHg 86%
    09:00 +28°C° 0.3 mm 2 mps 735 mmHg 81%
    10:00 +29°C° 0.9 mm 2 mps 735 mmHg 81%
    11:00 +29°C° 0.9 mm 2 mps 735 mmHg 81%
    12:00 +30°C° 0.9 mm 2 mps 735 mmHg 82%
    13:00 +29°C° 0.8 mm 2 mps 734 mmHg 83%
    14:00 +29°C° 0.8 mm 2 mps 734 mmHg 85%
    15:00 +28°C° 0.8 mm 2 mps 734 mmHg 87%
    16:00 +28°C° 0.9 mm 2 mps 734 mmHg 89%
    17:00 +27°C° 0.9 mm 2 mps 734 mmHg 91%
    18:00 +26°C° 0.9 mm 2 mps 734 mmHg 93%
    19:00 +26°C° 0.5 mm 2 mps 734 mmHg 94%
    20:00 +25°C° 0.5 mm 2 mps 735 mmHg 95%
    21:00 +25°C° 0.5 mm 2 mps 735 mmHg 96%
    22:00 +25°C° 0.2 mm 2 mps 735 mmHg 96%
    23:00 +24°C° 0.2 mm 2 mps 735 mmHg 96%

    15 December, Saturday

    Time Temperature Precipitation Wind Pressure Humidity
    00:00 +24°C° 0.2 mm 2 mps 735 mmHg 96%
    01:00 +24°C° 0.1 mm 2 mps 734 mmHg 97%
    02:00 +24°C° 0.1 mm 2 mps 734 mmHg 97%
    03:00 +24°C° 0.1 mm 2 mps 733 mmHg 97%
    04:00 +24°C° 0.2 mm 1 mps 734 mmHg 97%
    05:00 +24°C° 0.2 mm 1 mps 734 mmHg 96%
    06:00 +24°C° 0.2 mm 1 mps 734 mmHg 96%
    07:00 +26°C° 0.1 mm 1 mps 735 mmHg 88%
    08:00 +28°C° 0.1 mm 2 mps 735 mmHg 80%
    09:00 +30°C° 0.1 mm 2 mps 735 mmHg 71%
    10:00 +31°C° 0.3 mm 2 mps 735 mmHg 70%
    11:00 +31°C° 0.3 mm 2 mps 735 mmHg 68%
    12:00 +32°C° 0.3 mm 2 mps 735 mmHg 66%
    13:00 +31°C° 1.1 mm 2 mps 734 mmHg 71%
    14:00 +30°C° 1.1 mm 2 mps 734 mmHg 76%
    15:00 +29°C° 1.1 mm 2 mps 733 mmHg 81%
    16:00 +28°C° 1.3 mm 2 mps 733 mmHg 85%
    17:00 +27°C° 1.3 mm 2 mps 733 mmHg 88%
    18:00 +27°C° 1.3 mm 2 mps 733 mmHg 92%
    19:00 +26°C° 0.3 mm 2 mps 734 mmHg 93%
    20:00 +25°C° 0.3 mm 2 mps 734 mmHg 94%
    21:00 +25°C° 0.3 mm 2 mps 734 mmHg 96%
    22:00 +24°C° 0 mm 2 mps 734 mmHg 96%
    23:00 +24°C° 0 mm 1 mps 734 mmHg 96%

    16 December, Sunday

    Time Temperature Precipitation Wind Pressure Humidity
    00:00 +24°C° 0 mm 1 mps 734 mmHg 97%
    01:00 +24°C° 0.1 mm 1 mps 733 mmHg 97%
    02:00 +24°C° 0.1 mm 1 mps 733 mmHg 97%
    03:00 +24°C° 0.1 mm 1 mps 732 mmHg 97%
    04:00 +24°C° 0.1 mm 1 mps 733 mmHg 97%
    05:00 +24°C° 0.1 mm 1 mps 733 mmHg 97%
    06:00 +24°C° 0.1 mm 1 mps 733 mmHg 96%
    07:00 +26°C° 0.2 mm 1 mps 734 mmHg 88%
    08:00 +28°C° 0.2 mm 1 mps 734 mmHg 80%
    09:00 +30°C° 0.2 mm 1 mps 734 mmHg 72%
    10:00 +30°C° 0.7 mm 2 mps 734 mmHg 74%
    11:00 +30°C° 0.7 mm 2 mps 734 mmHg 76%
    12:00 +29°C° 0.7 mm 2 mps 733 mmHg 78%
    13:00 +29°C° 1.4 mm 2 mps 733 mmHg 79%
    14:00 +29°C° 1.4 mm 2 mps 733 mmHg 80%
    15:00 +29°C° 1.4 mm 2 mps 732 mmHg 81%
    16:00 +28°C° 0.6 mm 2 mps 732 mmHg 84%
    17:00 +27°C° 0.6 mm 2 mps 732 mmHg 86%
    18:00 +26°C° 0.6 mm 2 mps 733 mmHg 89%
    19:00 +26°C° 0.3 mm 2 mps 733 mmHg 91%
    20:00 +25°C° 0.3 mm 2 mps 733 mmHg 93%
    21:00 +24°C° 0.3 mm 2 mps 734 mmHg 95%
    22:00 +24°C° 0 mm 2 mps 734 mmHg 95%
    23:00 +24°C° 0 mm 2 mps 733 mmHg 95%

    17 December, Monday

    Time Temperature Precipitation Wind Pressure Humidity
    00:00 +24°C° 0 mm 2 mps 733 mmHg 95%
    01:00 +24°C° 0.2 mm 1 mps 733 mmHg 96%
    02:00 +24°C° 0.2 mm 1 mps 733 mmHg 96%
    03:00 +24°C° 0.2 mm 1 mps 732 mmHg 96%
    04:00 +24°C° 0.1 mm 1 mps 733 mmHg 96%
    05:00 +24°C° 0.1 mm 1 mps 733 mmHg 96%
    06:00 +24°C° 0.1 mm 1 mps 733 mmHg 96%
    07:00 +25°C° 0 mm 1 mps 734 mmHg 92%
    08:00 +26°C° 0 mm 1 mps 734 mmHg 89%
    09:00 +26°C° 0 mm 1 mps 734 mmHg 86%
    10:00 +27°C° 0.1 mm 1 mps 734 mmHg 82%
    11:00 +28°C° 0.1 mm 1 mps 734 mmHg 79%
    12:00 +28°C° 0.1 mm 1 mps 734 mmHg 75%
    13:00 +28°C° 0.5 mm 1 mps 734 mmHg 78%
    14:00 +28°C° 0.5 mm 1 mps 734 mmHg 81%
    15:00 +27°C° 0.5 mm 1 mps 733 mmHg 84%
    16:00 +27°C° 0.4 mm 1 mps 733 mmHg 86%
    17:00 +26°C° 0.4 mm 1 mps 734 mmHg 89%
    18:00 +26°C° 0.4 mm 1 mps 734 mmHg 92%
    19:00 +25°C° 0.1 mm 1 mps 734 mmHg 93%
    20:00 +25°C° 0.1 mm 1 mps 735 mmHg 94%
    21:00 +24°C° 0.1 mm 1 mps 735 mmHg 95%
    22:00 +24°C° 0.1 mm 1 mps 735 mmHg 96%
    23:00 +24°C° 0.1 mm 1 mps 735 mmHg 96%
    Show more